This is the latest recevied weather packets stored in our database for station/object K3FAZ. If no packets are shown the sender has not sent any weather packets the latest 1 day(s).
| Time | Temp. | Humidity | Pressure | Rain* | Wind** | Luminosity | Snow |
|---|---|---|---|---|---|---|---|
| 1778072250 | 11.11° C | 97% | 1008.8 hPa | 0 mm | - | 32 W/m² | - |
| 1778071343 | 11.11° C | 97% | 1009.1 hPa | 0 mm | - | 44 W/m² | - |
| 1778071040 | 11.11° C | 97% | 1008.9 hPa | 0 mm | - | 27 W/m² | - |
| 1778070739 | 11.11° C | 97% | 1009.1 hPa | 0 mm | - | 34 W/m² | - |
| 1778068922 | 13.89° C | 98% | 1008.9 hPa | 1.78 mm | - | 10 W/m² | - |
| 1778068318 | 13.89° C | 98% | 1008.7 hPa | 1.27 mm | - | 9 W/m² | - |
| 1778067108 | 13.33° C | 98% | 1008.3 hPa | 0 mm | - | 12 W/m² | - |
| 1778066804 | 13.33° C | 98% | 1008.2 hPa | 0 mm | - | 10 W/m² | - |
| 1778066502 | 13.33° C | 98% | 1008 hPa | 1.78 mm | - | 14 W/m² | - |
| 1778065897 | 13.33° C | 98% | 1008.5 hPa | 1.27 mm | - | 4 W/m² | - |
| 1778065594 | 13.33° C | 98% | 1008.4 hPa | 1.78 mm | - | 3 W/m² | - |
| 1778064685 | 13.33° C | 98% | 1008.6 hPa | 4.83 mm | - | 2 W/m² | - |
| 1778064383 | 13.33° C | 98% | 1008.5 hPa | 3.05 mm | - | 2 W/m² | - |
| 1778062263 | 13.33° C | 97% | 1008.6 hPa | 1.78 mm | - | 0 W/m² | - |
| 1778061659 | 13.33° C | 97% | 1008.6 hPa | 1.27 mm | - | 0 W/m² | - |
| 1778061054 | 13.33° C | 97% | 1008.4 hPa | 3.05 mm | - | 0 W/m² | - |
| 1778059844 | 13.33° C | 96% | 1008.7 hPa | 3.05 mm | - | 0 W/m² | - |
| 1778059542 | 13.33° C | 96% | 1008.8 hPa | 4.83 mm | - | 0 W/m² | - |
| 1778058937 | 13.33° C | 97% | 1008.9 hPa | 4.83 mm | - | 0 W/m² | - |
| 1778058634 | 13.33° C | 97% | 1009.3 hPa | 4.32 mm | - | 0 W/m² | - |
| 1778058332 | 13.33° C | 97% | 1009.3 hPa | 4.83 mm | - | 0 W/m² | - |
| 1778058028 | 13.33° C | 97% | 1009.1 hPa | 3.05 mm | - | 0 W/m² | - |
| 1778057725 | 13.33° C | 97% | 1009.5 hPa | 3.05 mm | - | 0 W/m² | - |
| 1778056814 | 13.33° C | 97% | 1009.4 hPa | 3.05 mm | - | 0 W/m² | - |
| 1778056512 | 13.33° C | 97% | 1009.3 hPa | 3.05 mm | - | 0 W/m² | - |
* Rain latest hour (hover to see other rain measurements)
** Current wind speed in m/s (hover to see current wind gust speed)